Regional Weather Roundup
Issued by NWS

Home | Current Version | Previous Version | Text Only | Print | Product List | Glossary On
Versions: 1 2 3 4 5 6 7 8 9 10 11 12 13 14 15 16 17 18 19 20 21 22 23 24 25 26 27 28 29 30 31 32 33 34 35 36 37 38 39 40 41 42 43 44 45 46 47 48 49 50
000
ASUS43 KLOT 311102
RWRIL

ILLINOIS REGIONAL WEATHER ROUNDUP
NATIONAL WEATHER SERVICE CHICAGO/ROMEOVILLE IL
600 AM CDT MON AUG 31 2015

NOTE: "FAIR" INDICATES FEW OR NO CLOUDS BELOW 12,000 FEET WITH NO
SIGNIFICANT WEATHER AND/OR OBSTRUCTIONS TO VISIBILITY.

* THESE STATIONS ARE NOT UNDER NWS QUALITY CONTROL. THEY ALSO MAY NOT
  REPORT WEATHER SUCH AS PRECIPITATION OR FOG.

ILZ001-002-007-009-015-016-024-311200-
NORTHWEST ILLINOIS

CITY           SKY/WX    TMP DP  RH WIND       PRES   REMARKS
MOLINE         CLEAR     60  58  92 E5        30.03R FOG
STERLING*        N/A    N/A N/A N/A MISG        N/A
$$

ILZ003-004-008-010-011-017-018-311200-
NORTH CENTRAL ILLINOIS

CITY           SKY/WX    TMP DP  RH WIND       PRES   REMARKS
ROCKFORD       PTCLDY    59  56  89 CALM      30.06S FOG
FREEPORT*      CLOUDY    55  55  99 CALM      30.06S FOG
$$

ILZ005-006-012>014-019>023-311200-
NORTHEAST ILLINOIS

CITY           SKY/WX    TMP DP  RH WIND       PRES   REMARKS
CHICAGO-OHARE  FOG       62  62 100 CALM      30.05R VSB 1/8
CHICAGO-MIDWAY PTCLDY    66  63  90 CALM      30.05R FOG
AURORA         FOG       58  58 100 CALM      30.05S VSB 1/4
LANSING*       CLOUDY    62  62 100 CALM      30.05R FOG
WAUKEGAN       FOG       59  59 100 CALM      30.05R VSB 1/2
DUPAGE AIRPORT FOG       60  58  92 N3        30.05R VSB 1/4
WHEELING       FOG       61  60  97 CALM      30.06R VSB<1/4
NORTHERLY ISL    N/A     66  64  93 S1          N/A
$$

LMZ740>746-311200-
SOUTHERN LAKE MICHIGAN

STATION/POSITION SKY/WX   TEMP    WIND        PRES    VSBY  WAVE
                          AIR SEA DIR/SP/G                  HT/PER
                          (F)     (DEG/KT/KT) (MB)    (MI)  (FT/S)
SOUTHERN BUOY              68     220/  4     1017.1R
WILMETTE HARBOR            61 60   CALM  /  2   N/A           1
HARRISON CRIB              68     180/  4/  5   N/A
BURNHAM HARBOR             66     210/  1/  3   N/A
BURNS HARBOR               68     210/  2/  3 1017.6S
MICHIGAN CITY              67     130/  2/  3   N/A
MICHIGAN CITY 6N           69 71  210/  2/  4   N/A           1
ST. JOSEPH                 68 71  180/  2/  4   N/A           0
$$

ILZ025>027-034>036-040-047-049-050-058-095>099-311200-
WEST-CENTRAL ILLINOIS

CITY           SKY/WX    TMP DP  RH WIND       PRES   REMARKS
QUINCY         PTCLDY    69  68  96 SE3       30.02R FOG
$$

ILZ028>032-037-038-041>044-048-051>054-059>061-311200-
CENTRAL ILLINOIS

CITY           SKY/WX    TMP DP  RH WIND       PRES   REMARKS
DECATUR        CLEAR     69  66  90 S3        30.05R
PEORIA         CLEAR     68  64  87 E5        30.04R FOG
SPRINGFIELD    CLEAR     70  68  93 S3        30.04R
TAYLORVILLE    NOT AVBL
$$

ILZ033-039-045-046-055>057-062-063-311200-
EAST-CENTRAL ILLINOIS

CITY           SKY/WX    TMP DP  RH WIND       PRES   REMARKS
CHAMPAIGN      CLEAR     65  63  93 E3        30.06R FOG
MATTOON        MOCLDY    70  67  90 S6        30.05R FOG
$$

ILZ079-100>102-311200-
SOUTHWEST ILLINOIS

CITY           SKY/WX    TMP DP  RH WIND       PRES   REMARKS
BELLEVILLE     PTCLDY    70  70 100 E2        30.03R
CAHOKIA*       CLEAR     71  68  90 S3        30.03R
$$

ILZ064>066-069>071-074>076-080>082-084>086-088>090-092>094-311200-
SOUTH-CENTRAL ILLINOIS

CITY           SKY/WX    TMP DP  RH WIND       PRES   REMARKS
CARBONDALE     PTCLDY    68  66  93 S5        30.07R
MT. VERNON     PTCLDY    68  63  83 CALM      30.08R
$$

ILZ067-068-072-073-078-083-087-091-311200-
SOUTHEAST ILLINOIS

CITY           SKY/WX    TMP DP  RH WIND       PRES   REMARKS
LAWRENCEVILLE  PTCLDY    67  65  93 S5        30.08R FOG
FLORA*         PTCLDY    67  66  99 CALM      30.07R FOG
ROBINSON*      PTCLDY    64  63  97 SE3       30.08R FOG
$$

ABBREVIATIONS USED IN REMARKS
   TC - TEMPERATURE IN CELSIUS
  WCI - WIND CHILL INDEX
   HX - HEAT INDEX
  VSB - VISIBILITY
$$



USA.gov is the U.S. government's official web portal to all federal, state and local government web resources and services.